Tracking 30744 objects as of 24-Jun-2025
HD Live streaming from Space Station
objects crossing your sky now

STARLINK-4494

Track STARLINK-4494 now!
10-day predictions
STARLINK-4494 is classified as:


NORAD ID: 53558
Int'l Code: 2022-101AH
Perigee: 546.0 km
Apogee: 547.8 km
Inclination: 53.2 °
Period: 95.4 minutes
Semi major axis: 6917 km
RCS: Unknown
Launch date: August 19, 2022
Source: United States (US)
Launch site: AIR FORCE EASTERN TEST RANGE (AFETR)
Your satellite tracking list
Your tracking list is empty




NASA's NSSDC Master Catalog

Two Line Element Set (TLE):
1 53558U 22101AH  25173.33044924  .00000403  00000-0  43379-4 0  9996
2 53558  53.2162 147.6404 0001324  80.5792 279.5350 15.08842006157732
Source of the keplerian elements: AFSPC